Location: Sternwarte Zollern-Alb
(48.2880°N, 8.6780°E)
Time: 03:51:16
(UTC+02:00)

ISS - Pass Details

Date: 27 April 2026
Orbit: 414 x 424 km, 51.6° (Epoch: 19 May)

Event Time Altitude Azimuth Distance (km) Brightness Sun altitude
Exits shadow 04:46:47 18° 270° (W) 1,093 -2.1 -13.2°
Maximum altitude 04:49:04 58° 346° (NNW) 494 -3.3 -12.9°
Drops below altitude 10° 04:52:25 10° 67° (ENE) 1,505 0.4 -12.5°
Sets 04:54:33 0° 71° (ENE) 2,373 1.6 -12.2°
